Погода в Сариасиях

Узбекистан     38°24′45″N   67°57′24″E
темп.,
°C
ветер,
м/с
пор.,
м/с
влажн.,
%
обл.,
%
осадки,
мм/ч
давл.,
гПа
погр.,
м
1 марта, пн
пн123:00+7ссв12380 0.0 102022
02:00+7ссв233221 0.0 102023
05:00+6ссв232733 0.0 102024
08:00+7ссв232796 0.0 102026
11:00+12вюв222248 0.0 1020344
14:00+15вюв22190 0.0 1019639
17:00+15всв12200 0.0 1018478
20:00+11с22280 0.0 102025
2 марта, вт
вт223:00+10с232828 0.0 102126
02:00+10с222489 0.0 102124
05:00+9с222395 0.0 102024
08:00+10с2226100 0.0 102126
11:00+14в2221100 0.0 1020322
14:00+16ююв2219100 0.0 1019737
17:00+16ю4525100 0.0 1020792
20:00+12зюз4541100 0.0 1022156
3 марта, ср
ср323:00+10зсз3359100 0.1 1023155
02:00+8сз126399 0.0 102251
05:00+8св226299 0.0 102151
08:00+8св126286 0.0 102255
11:00+12вюв224687 0.0 10211167
14:00+14юв224092 0.0 10191809
17:00+14в234092 0.0 10181906
20:00+11ссз355379 0.0 101999
4 марта, чт
чт423:00+10с225553 0.0 101924
02:00+9ссз23520 0.0 101725
05:00+9ссз225030 0.0 101623
08:00+10с124762 0.0 101725
11:00+13в454566 0.0 1017742
14:00+14вюв224687 0.1 1017839
17:00+15св324684 0.3 1018865
20:00+12ссв11565 0.0 101924
5 марта, пт
пт523:00+11с12532 0.1 102022
02:00+10св22580 0.3 102133
05:00+10ссв236419 0.4 102371
08:00+10сз346477 0.1 1025133
11:00+10ююв116488 0.8 1024388
14:00+13вюв225331 0.0 10211025
17:00+14в335020 0.0 1019905
20:00+12ссв1156100 0.0 101827